Jacksonville NAS, FL

6:22 PM EDT on August 17, 2017 (GMT -0400)
Jacksonville Naval Air Station

Weather History for KNIP - February, 2014

Change the Weather History Date:

Sunday, February 2, 2014

  Actual Average Record
Temperature  
Mean Temperature 63 °F -  
Max Temperature 71 °F 63 °F 80 °F (2016)
Min Temperature 55 °F 46 °F 39 °F (2003)
Degree Days  
Heating Degree Days 2    
Growing Degree Days 13 (Base 50)    
Moisture  
Dew Point 59 °F    
Average Humidity 89    
Maximum Humidity 97    
Minimum Humidity 73    
Precipitation  
Precipitation 0.00 in - - ()
Sea Level Pressure  
Sea Level Pressure 30.13 in    
Wind  
Wind Speed 4 mph (NE)    
Max Wind Speed 8 mph    
Max Gust Speed -    
Visibility 3 miles    
Events Fog    
Averages and records for this station are not official NWS values.
T = Trace of Precipitation, MM = Missing Value Source: NWS Daily Summary

Daily Weather History Graph

Daily Weather History Graph

Search for Another Location

Airport or City:

Trip Planner

Search our weather history database for the weather conditions in past years. The results will help you decide how hot, cold, wet, or windy it might be!

Date:

Astronomy

Feb. 02, 2014 Rise Set
Actual Time 7:16 AM EST 6:04 PM EST
Civil Twilight 6:51 AM EST 6:29 PM EST
Nautical Twilight 6:23 AM EST 6:58 PM EST
Astronomical Twilight 5:54 AM EST 7:26 PM EST
Moon 8:59 AM EST (2/2) 9:27 PM EST (2/2)
Length of Visible Light 11h 37m
Length of Day
10h 47m
Waxing Crescent, 11% of the Moon is Illuminated
Feb 2
Waxing Crescent
Feb 6
First Quarter
Feb 14
Full
Feb 22
Last Quarter
Mar 1
New

Hourly Weather History & Observations

Time (EST) Temp. Dew Point Humidity Pressure Visibility Wind Dir Wind Speed Gust Speed Precip Events Conditions
12:01 AM 57.0 °F 55.0 °F 93% 30.15 in 0.2 mi North 6.9 mph - N/A Fog Fog
12:53 AM 57.0 °F 55.0 °F 93% 30.14 in 0.2 mi North 6.9 mph - N/A Fog Fog
1:48 AM 57.2 °F 55.4 °F 94% 30.15 in 0.8 mi NNE 4.6 mph - N/A   Overcast
1:53 AM 57.0 °F 55.0 °F 93% 30.14 in 0.8 mi North 3.5 mph - N/A   Overcast
2:04 AM 57.0 °F 55.0 °F 93% 30.15 in 1.5 mi NNW 5.8 mph - N/A   Overcast
2:53 AM 57.0 °F 55.0 °F 93% 30.12 in 1.5 mi NNE 4.6 mph - N/A   Overcast
3:27 AM 57.0 °F 55.0 °F 93% 30.14 in 0.5 mi NNE 5.8 mph - N/A Fog Fog
3:53 AM 57.0 °F 55.0 °F 93% 30.12 in 0.2 mi NNE 4.6 mph - N/A Fog Fog
4:53 AM 55.9 °F 54.0 °F 93% 30.13 in 0.2 mi North 6.9 mph - N/A Fog Fog
5:53 AM 55.9 °F 54.0 °F 93% 30.14 in 0.2 mi North 4.6 mph - N/A Fog Fog
6:53 AM 55.9 °F 55.0 °F 97% 30.16 in 0.2 mi NNE 3.5 mph - N/A Fog Fog
7:53 AM 57.0 °F 55.0 °F 93% 30.17 in 0.2 mi Calm Calm - N/A Fog Fog
8:53 AM 57.0 °F 55.0 °F 93% 30.19 in 0.8 mi Calm Calm - N/A   Overcast
9:53 AM 57.9 °F 55.9 °F 93% 30.20 in 0.8 mi Calm Calm - N/A   Overcast
10:29 AM 59.0 °F 57.0 °F 93% 30.22 in 1.8 mi ENE 3.5 mph - N/A   Overcast
10:53 AM 60.1 °F 57.9 °F 93% 30.20 in 2.0 mi Variable 3.5 mph - N/A   Overcast
11:53 AM 63.0 °F 60.1 °F 90% 30.18 in 2.5 mi ESE 4.6 mph - N/A   Overcast
12:23 PM 64.9 °F 60.1 °F 84% 30.19 in 5.0 mi Calm Calm - N/A   Haze
12:53 PM 64.9 °F 60.1 °F 84% 30.16 in 7.0 mi ESE 3.5 mph - N/A   Overcast
1:53 PM 68.0 °F 60.1 °F 76% 30.12 in 8.0 mi North 3.5 mph - N/A   Overcast
2:53 PM 70.0 °F 61.0 °F 73% 30.10 in 10.0 mi Calm Calm - N/A   Overcast
3:53 PM 71.1 °F 62.1 °F 73% 30.10 in 10.0 mi ESE 4.6 mph - N/A   Mostly Cloudy
4:53 PM 71.1 °F 64.0 °F 78% 30.10 in 10.0 mi South 8.1 mph - N/A   Mostly Cloudy
5:53 PM 68.0 °F 62.1 °F 81% 30.10 in 9.0 mi SE 8.1 mph - N/A   Overcast
6:53 PM 64.9 °F 62.1 °F 90% 30.10 in 7.0 mi ESE 8.1 mph - N/A   Overcast
7:53 PM 66.9 °F 63.0 °F 87% 30.10 in 6.0 mi SE 4.6 mph - N/A Fog Patches of Fog
8:53 PM 68.0 °F 64.9 °F 90% 30.10 in 6.0 mi Calm Calm - N/A   Overcast
9:48 PM 68.0 °F 64.4 °F 88% 30.11 in 6.0 mi Calm Calm - N/A   Scattered Clouds
9:53 PM 68.0 °F 64.9 °F 90% 30.10 in 6.0 mi Calm Calm - N/A   Mostly Cloudy
10:08 PM 66.9 °F 64.0 °F 90% 30.11 in 6.0 mi Calm Calm - N/A   Scattered Clouds
10:19 PM 64.9 °F 62.1 °F 90% 30.11 in 4.0 mi Calm Calm - N/A   Mostly Cloudy
10:53 PM 64.9 °F 61.0 °F 87% 30.09 in 3.0 mi Calm Calm - N/A   Overcast
11:04 PM 66.0 °F 62.1 °F 87% 30.11 in 0.8 mi Calm Calm - N/A   Overcast
11:28 PM 68.0 °F 64.0 °F 87% 30.11 in 0.5 mi SSW 3.5 mph - N/A Fog Fog
11:53 PM 66.9 °F 64.0 °F 90% 30.09 in 0.5 mi Calm Calm - N/A Fog Fog